Voltar ao catálogo

STARLINK-4743

AtivoComunicaçõesVLEO
NORAD 53787·PAYLOAD·🇺🇸 United States

Lançado Sep 11, 2022 de Cape Canaveral Space Force Station

Loading…

Próximas Passagens (próximas 24 horas)

TLE

AtualizadoSource: CelesTrak SupGP

Época: Sep 14, 2026, 21:44 UTC

1 53787C 22111Q   26257.90604167 -.00016378  00000+0 -52679-3 0  2577
2 53787  53.1565 132.3204 0001240  89.2379 105.1155 15.31703107    14

Acompanhe STARLINK-4743 em tempo real com AllMySat

Download on the App Store